Simultaneous Nadir Overpasses (SNOs) Predictions

Prediction of SNOs between AQUA and NPP Satellite Orbit:

Table of predicted SNOs for the next 14.0 days since TLE Epoch: 10/16/2016
Index Date (AQUA) Time (AQUA) Lat,Lon (AQUA) SZA (AQUA ) Date (NPP) Time (NPP) Lat,Lon (NPP) SZA (NPP ) Distance(km) Time Diff (sec)
1 10/17/2016 20:59:18 -74.41, -80.11 72.49 10/17/2016 20:58:12 -74.41, -80.05 72.44 1.84 66
2 10/17/2016 21:48:18 75.70, 90.95 106.17 10/17/2016 21:48:29 75.70, 90.99 106.16 0.97 11
3 10/20/2016 13:15:43 -74.56, 36.14 71.74 10/20/2016 13:15:05 -74.55, 36.07 71.68 2.07 38
4 10/20/2016 14:04:43 75.84,-152.74 106.94 10/20/2016 14:05:22 75.83,-152.83 106.92 2.66 39
5 10/23/2016 05:31:53 -75.40, 154.21 71.71 10/23/2016 05:31:42 -75.40, 154.25 71.71 1.16 11
6 10/23/2016
